Hourly Weather Luki

Today, 6 May, Thursday

Time Temperature Precipitation Wind Pressure Humidity
00:00 +9°C° 0 mm 5 mps 734 mmHg 83%
01:00 +9°C° 0 mm 5 mps 734 mmHg 86%
02:00 +8°C° 0 mm 6 mps 733 mmHg 88%
03:00 +8°C° 0.1 mm 6 mps 733 mmHg 86%
04:00 +8°C° 0.1 mm 7 mps 732 mmHg 84%
05:00 +8°C° 0.1 mm 7 mps 731 mmHg 82%
06:00 +7°C° 0.3 mm 8 mps 731 mmHg 83%
07:00 +6°C° 0.3 mm 8 mps 731 mmHg 84%
08:00 +6°C° 0.3 mm 8 mps 730 mmHg 84%
09:00 +6°C° 0.8 mm 8 mps 731 mmHg 86%
10:00 +6°C° 0.8 mm 7 mps 731 mmHg 88%
11:00 +6°C° 0.8 mm 7 mps 732 mmHg 90%
12:00 +6°C° 0.3 mm 7 mps 733 mmHg 87%
13:00 +6°C° 0.3 mm 7 mps 733 mmHg 83%
14:00 +8°C° 0.3 mm 7 mps 734 mmHg 80%
15:00 +8°C° 0.3 mm 7 mps 735 mmHg 76%
16:00 +8°C° 0.3 mm 6 mps 735 mmHg 73%
17:00 +8°C° 0.3 mm 6 mps 736 mmHg 70%
18:00 +7°C° 0 mm 6 mps 736 mmHg 69%
19:00 +6°C° 0 mm 5 mps 737 mmHg 68%
20:00 +5°C° 0 mm 5 mps 737 mmHg 67%
21:00 +3°C° 0 mm 5 mps 737 mmHg 69%
22:00 +3°C° 0 mm 5 mps 737 mmHg 70%
23:00 +2°C° 0 mm 5 mps 738 mmHg 72%

Tomorrow, 7 May, Friday

Time Temperature Precipitation Wind Pressure Humidity
00:00 +2°C° 0 mm 5 mps 738 mmHg 72%
01:00 +2°C° 0 mm 5 mps 738 mmHg 73%
02:00 +2°C° 0 mm 5 mps 739 mmHg 73%
03:00 +2°C° 0 mm 5 mps 739 mmHg 75%
04:00 +1°C° 0 mm 5 mps 739 mmHg 77%
05:00 +1°C° 0 mm 4 mps 739 mmHg 78%
06:00 +3°C° 0 mm 5 mps 739 mmHg 73%
07:00 +5°C° 0 mm 5 mps 739 mmHg 67%
08:00 +7°C° 0 mm 5 mps 740 mmHg 61%
09:00 +7°C° 0.2 mm 5 mps 739 mmHg 67%
10:00 +7°C° 0.2 mm 5 mps 739 mmHg 73%
11:00 +7°C° 0.2 mm 6 mps 739 mmHg 79%
12:00 +6°C° 0.9 mm 5 mps 738 mmHg 85%
13:00 +6°C° 0.9 mm 4 mps 737 mmHg 90%
14:00 +5°C° 0.9 mm 4 mps 737 mmHg 95%
15:00 +5°C° 1.9 mm 3 mps 736 mmHg 95%
16:00 +7°C° 1.9 mm 3 mps 736 mmHg 96%
17:00 +7°C° 1.9 mm 2 mps 735 mmHg 96%
18:00 +7°C° 0.3 mm 2 mps 735 mmHg 96%
19:00 +7°C° 0.3 mm 2 mps 735 mmHg 96%
20:00 +7°C° 0.3 mm 2 mps 735 mmHg 96%
21:00 +5°C° 0 mm 3 mps 736 mmHg 95%
22:00 +5°C° 0 mm 3 mps 736 mmHg 95%
23:00 +5°C° 0 mm 4 mps 737 mmHg 94%

Day after tomorrow, 8 May, Saturday

Time Temperature Precipitation Wind Pressure Humidity
00:00 +4°C° 0 mm 3 mps 737 mmHg 93%
01:00 +4°C° 0 mm 3 mps 738 mmHg 93%
02:00 +4°C° 0 mm 3 mps 739 mmHg 92%
03:00 +4°C° 0 mm 3 mps 739 mmHg 93%
04:00 +4°C° 0 mm 3 mps 739 mmHg 93%
05:00 +4°C° 0 mm 3 mps 740 mmHg 94%
06:00 +5°C° 0 mm 4 mps 740 mmHg 89%
07:00 +6°C° 0 mm 4 mps 741 mmHg 84%
08:00 +7°C° 0 mm 4 mps 741 mmHg 79%
09:00 +8°C° 0 mm 4 mps 742 mmHg 71%
10:00 +10°C° 0 mm 4 mps 742 mmHg 62%
11:00 +11°C° 0 mm 4 mps 742 mmHg 54%
12:00 +11°C° 0 mm 3 mps 742 mmHg 57%
13:00 +10°C° 0 mm 3 mps 743 mmHg 60%
14:00 +10°C° 0 mm 3 mps 743 mmHg 63%
15:00 +10°C° 0.1 mm 3 mps 742 mmHg 68%
16:00 +9°C° 0.1 mm 3 mps 742 mmHg 73%
17:00 +9°C° 0.1 mm 3 mps 742 mmHg 78%
18:00 +8°C° 1.1 mm 3 mps 741 mmHg 84%
19:00 +7°C° 1.1 mm 4 mps 741 mmHg 89%
20:00 +6°C° 1.1 mm 4 mps 740 mmHg 95%
21:00 +7°C° 0.4 mm 4 mps 739 mmHg 95%
22:00 +8°C° 0.4 mm 4 mps 739 mmHg 95%
23:00 +9°C° 0.4 mm 5 mps 738 mmHg 95%

9 May, Sunday

Time Temperature Precipitation Wind Pressure Humidity
00:00 +9°C° 0 mm 5 mps 738 mmHg 95%
01:00 +10°C° 0 mm 5 mps 739 mmHg 94%
02:00 +12°C° 0 mm 5 mps 739 mmHg 94%
03:00 +12°C° 0 mm 5 mps 739 mmHg 94%
04:00 +12°C° 0 mm 4 mps 739 mmHg 94%
05:00 +12°C° 0 mm 4 mps 739 mmHg 94%
06:00 +13°C° 0.1 mm 4 mps 739 mmHg 92%
07:00 +14°C° 0.1 mm 4 mps 739 mmHg 90%
08:00 +15°C° 0.1 mm 5 mps 740 mmHg 88%
09:00 +17°C° 0 mm 5 mps 740 mmHg 81%
10:00 +20°C° 0 mm 5 mps 740 mmHg 74%
11:00 +22°C° 0 mm 6 mps 740 mmHg 67%
12:00 +22°C° 0.4 mm 6 mps 740 mmHg 69%
13:00 +22°C° 0.4 mm 6 mps 740 mmHg 70%
14:00 +22°C° 0.4 mm 6 mps 739 mmHg 72%
15:00 +22°C° 0.2 mm 6 mps 739 mmHg 73%
16:00 +22°C° 0.2 mm 6 mps 739 mmHg 74%
17:00 +22°C° 0.2 mm 6 mps 739 mmHg 75%
18:00 +21°C° 0.1 mm 6 mps 739 mmHg 77%
19:00 +20°C° 0.1 mm 6 mps 739 mmHg 80%
20:00 +19°C° 0.1 mm 5 mps 739 mmHg 82%

10 May, Monday

Time Temperature Precipitation Wind Pressure Humidity

11 May, Tuesday

Time Temperature Precipitation Wind Pressure Humidity
Show more

We Need Your Consent

Meteoprog and our Service Providers may store and access personal data such as cookies, device identifiers or other similar technologies on your device and process such data to personalise content and ads, as well as provide social media features and to analyse the traffic.

  • Store and/or access information on your device

    Cookies, device identifiers or other information can be stored or accessed on your device for the purposes indicated above.

  • Personalised ads and content, ad and content measurement, audience insights, and products development

    Ads and content can be personalised based on a profile. More data can be added to better personalise ads and content. Ad and content performance can be measured. Insights about the audience who saw the ads and content can be derived. Such data can be used to develop or improve user’s experience, systems and software.

By clicking ‘I Agree’ you will allow the use of indicated cookies, device identifiers, web beacons or other similar technologies. Your settings can be changed in the browser on your device.

For certain purposes, legitimate interests may be relied on, rather than consent. You can read more about this in our Privacy and Cookie Policy.